WODKAN Weather Reports


time (UTC)temp
C
wind
direction
speed
KPH
gust
KPH
rain 1hr
cm
rain 24hr
cm
rain mn
cm
humidity
%
barometer
mb
20260905195352 12 279 1.6 11.3 0.10 2.21 0.43 81 1015.1
20260905194845 12 269 4.8 11.3 0.10 3.20 0.43 81 1015.2
20260905194350 12 247 4.8 11.3 0.00 3.10 0.43 81 1015.1
20260905193845 12 277 4.8 9.7 0.10 3.10 0.43 81 1015.1
20260905193350 12 258 3.2 9.7 0.20 3.10 0.43 81 1015.1
20260905192828 12 235 4.8 8.0 0.41 3.10 0.43 81 1015.0
20260905192353 12 252 3.2 8.0 0.41 3.10 0.43 81 1015.0
20260905191846 13 269 1.6 9.7 0.41 3.10 0.43 81 1014.9
20260905191351 13 267 3.2 9.7 0.41 3.10 0.43 81 1014.8
20260905190844 13 287 1.6 8.0 0.41 3.10 0.43 81 1014.8
20260905190408 13 275 4.8 9.7 0.41 3.10 0.43 81 1014.7
20260905185851 13 252 4.8 9.7 0.41 3.10 0.43 80 1014.8
20260905185354 13 267 6.4 17.7 0.41 3.10 0.43 80 1015.0
20260905184850 13 275 8.0 22.5 0.41 3.10 0.43 80 1015.1
20260905184354 13 257 9.7 22.5 0.41 3.10 0.43 80 1015.2
20260905183847 13 244 9.7 22.5 0.20 2.90 0.38 80 1015.2
20260905183350 13 225 12.9 29.0 0.20 2.90 0.38 80 1015.2
20260905182843 13 250 12.9 29.0 0.10 2.69 0.33 81 1015.1
20260905182351 13 275 9.7 20.9 0.10 2.69 0.33 81 1015.1
20260905181828 13 276 3.2 6.4 0.20 2.69 0.33 81 1015.0
20260905181355 13 270 1.6 6.4 0.20 2.69 0.33 81 1014.7
20260905180831 13 270 0.0 1.6 0.20 2.69 0.33 81 1014.4
20260905180356 13 270 0.0 4.8 0.20 2.69 0.33 80 1014.5
20260905175841 13 270 0.0 9.7 0.20 2.69 0.33 80 1014.5
20260905175346 13 257 4.8 9.7 0.20 2.69 0.33 80 1014.5
20260905174839 13 259 3.2 12.9 0.20 2.69 0.33 80 1014.5
20260905174342 13 247 4.8 20.9 0.20 2.69 0.33 80 1014.5
20260905173855 13 295 8.0 20.9 0.20 2.69 0.33 80 1014.6
20260905173340 13 263 9.7 19.3 0.20 2.69 0.33 80 1014.6
20260905172833 14 245 8.0 27.4 0.10 2.59 0.33 80 1014.5
20260905172352 13 261 14.5 25.7 0.10 2.59 0.33 80 1014.5
20260905171845 13 288 3.2 9.7 0.00 2.49 0.30 80 1014.5
20260905171350 13 268 0.0 0.0 0.00 2.49 0.30 80 1014.1
20260905170903 14 268 0.0 0.0 0.20 2.49 0.30 80 1014.0
20260905170347 14 268 0.0 0.0 0.51 2.49 0.30 80 1013.9
20260905165833 14 268 0.0 0.0 0.61 2.49 0.30 80 1013.9
20260905165418 14 268 0.0 0.0 0.61 2.49 0.30 80 1013.9
20260905164831 14 268 0.0 1.6 0.71 2.49 0.30 80 1013.9
20260905163838 14 268 1.6 6.4 0.71 2.49 0.30 79 1014.0
20260905163342 14 234 0.0 1.6 0.71 2.49 0.30 79 1014.0
20260905162835 15 234 0.0 4.8 0.71 2.49 0.30 79 1013.9
20260905162342 15 232 1.6 14.5 0.71 2.49 0.30 78 1014.1
20260905161339 15 233 8.0 27.4 0.71 2.49 0.30 77 1014.4
20260905160835 16 292 12.9 25.7 0.51 2.31 0.25 77 1014.7
20260905155903 16 308 1.6 4.8 0.10 1.91 0.18 77 1013.7
20260905155347 16 307 0.0 0.0 0.10 1.91 0.18 77 1013.5
20260905154903 16 307 0.0 0.0 0.00 1.80 0.15 76 1013.4
20260905154347 16 307 0.0 0.0 0.00 1.80 0.15 76 1013.4
20260905153840 16 307 0.0 0.0 0.00 1.80 0.15 76 1013.3
20260905153341 16 307 0.0 4.8 0.00 1.80 0.15 76 1013.4
20260905152854 16 307 0.0 4.8 0.00 1.80 0.15 76 1013.4
20260905152358 16 307 0.0 3.2 0.00 1.80 0.15 75 1013.4
20260905151831 17 307 0.0 3.2 0.00 1.80 0.15 75 1013.3
20260905151342 17 307 0.0 3.2 0.10 1.80 0.15 74 1013.3
20260905150834 17 307 0.0 8.0 0.61 1.80 0.15 74 1013.3
20260905150356 17 308 1.6 9.7 0.71 1.80 0.15 73 1013.4
20260905145842 17 286 4.8 9.7 0.71 1.80 0.15 72 1013.3
20260905145343 17 298 4.8 8.0 0.71 1.80 0.15 72 1013.3
20260905144859 16 292 4.8 11.3 0.71 1.80 0.15 73 1013.3
20260905144401 16 304 4.8 16.1 0.71 1.80 0.15 74 1013.3
20260905143831 16 285 9.7 17.7 0.71 1.80 0.15 74 1013.4
20260905143412 16 296 6.4 17.7 0.71 1.80 0.15 76 1013.4
20260905142846 16 277 3.2 8.0 0.71 1.80 0.15 76 1013.4
20260905142353 15 304 3.2 11.3 0.71 1.80 0.15 75 1013.5
20260905141846 15 287 6.4 12.9 0.71 1.80 0.15 74 1013.7
20260905141350 16 275 8.0 20.9 0.61 1.70 0.15 73 1013.7
20260905140842 17 273 14.5 25.7 0.10 1.19 0.05 71 1013.9
20260905140350 17 275 11.3 25.7 0.00 1.09 0.03 68 1013.6
20260905135834 18 277 14.5 35.4 0.00 1.09 0.03 67 1013.4
20260905135357 19 261 19.3 35.4 0.00 1.09 0.03 64 1013.3
20260905134831 20 273 11.3 29.0 0.00 1.09 0.03 64 1013.0
20260905134338 20 274 11.3 29.0 0.00 1.09 0.03 62 1012.9
20260905133834 20 286 14.5 29.0 0.00 1.09 0.03 62 1012.9
20260905133340 20 313 9.7 29.0 0.00 1.09 0.03 63 1012.8
20260905132854 20 219 11.3 29.0 0.00 1.09 0.03 62 1012.8
20260905132342 20 265 4.8 24.1 0.00 1.09 0.03 63 1012.6
20260905131839 19 250 12.9 24.1 0.00 1.09 0.03 63 1012.8
20260905131342 20 274 12.9 24.1 0.00 1.09 0.03 60 1012.8
20260905130834 20 255 8.0 27.4 0.00 1.09 0.03 59 1012.7
20260905130339 20 271 14.5 30.6 0.00 1.09 0.03 59 1012.9
20260905125834 20 267 11.3 24.1 0.00 1.09 0.03 62 1012.9
20260905125341 20 267 12.9 29.0 0.00 1.09 0.03 61 1012.9
20260905124833 20 269 17.7 29.0 0.00 1.09 0.03 61 1012.9
20260905124352 20 272 9.7 33.8 0.00 1.09 0.03 62 1012.9
20260905123847 20 259 12.9 33.8 0.00 1.09 0.03 60 1013.0
20260905123352 20 242 9.7 30.6 0.00 1.09 0.03 62 1013.0
20260905122904 20 275 14.5 30.6 0.00 1.09 0.03 61 1013.1
20260905122348 20 281 19.3 30.6 0.00 1.09 0.03 59 1013.1
20260905121840 20 279 17.7 30.6 0.00 1.09 0.03 61 1013.1
20260905121339 20 285 14.5 25.7 0.00 1.09 0.03 62 1013.1
20260905120852 20 271 11.3 30.6 0.00 1.09 0.03 62 1013.2
20260905120335 20 288 12.9 30.6 0.00 1.09 0.03 64 1013.2
20260905115843 20 274 12.9 33.8 0.00 1.09 0.03 64 1013.2
20260905115347 19 298 20.9 33.8 0.00 1.09 0.03 63 1013.1
20260905114839 20 264 16.1 33.8 0.00 1.09 0.03 63 1013.2
20260905114345 20 263 12.9 33.8 0.00 1.09 0.03 65 1013.1
20260905113837 20 256 12.9 30.6 0.00 1.09 0.03 62 1013.1
20260905113341 20 271 11.3 27.4 0.00 1.09 0.03 64 1013.0
20260905112833 20 281 8.0 29.0 0.00 1.09 0.03 63 1013.0
20260905112358 20 263 11.3 29.0 0.00 1.09 0.03 65 1012.9
20260905111831 19 269 14.5 29.0 0.00 1.09 0.03 64 1013.0
20260905111339 19 257 14.5 27.4 0.00 1.09 0.03 63 1013.0
20260905110834 19 263 16.1 27.4 0.00 1.09 0.03 65 1013.1
20260905110359 19 250 12.9 29.0 0.00 1.09 0.03 65 1013.0
20260905105842 19 275 14.5 29.0 0.00 1.09 0.03 64 1012.8
20260905105351 19 331 16.1 25.7 0.00 1.09 0.03 65 1012.9
20260905104904 19 287 14.5 29.0 0.00 1.09 0.03 65 1012.8
20260905104409 18 279 19.3 37.0 0.00 1.09 0.03 65 1013.0
20260905103844 18 261 20.9 37.0 0.00 1.09 0.03 64 1012.9
20260905103410 19 284 17.7 37.0 0.00 1.09 0.03 65 1012.9
20260905102901 18 284 17.7 29.0 0.00 1.09 0.03 66 1012.8
20260905102345 18 293 12.9 29.0 0.00 1.09 0.03 67 1012.8
20260905101839 18 267 17.7 32.2 0.00 1.09 0.03 66 1012.7
20260905101344 18 215 11.3 32.2 0.00 1.09 0.03 67 1012.8
20260905100839 18 193 12.9 32.2 0.00 1.09 0.03 67 1012.6
20260905100346 18 226 16.1 38.6 0.00 1.09 0.03 67 1012.6
20260905095831 18 251 19.3 38.6 0.00 1.09 0.03 67 1012.6
20260905095416 18 226 14.5 30.6 0.00 1.09 0.03 67 1012.5
20260905094831 18 270 11.3 29.0 0.00 1.09 0.03 68 1012.6
20260905094340 18 304 14.5 30.6 0.00 1.09 0.03 68 1012.5
20260905093835 18 269 17.7 27.4 0.00 1.09 0.03 69 1012.3
20260905093340 18 243 12.9 22.5 0.00 1.09 0.03 69 1012.3
20260905092833 18 245 11.3 29.0 0.00 1.09 0.03 69 1012.4
20260905092358 18 281 14.5 29.0 0.00 1.09 0.03 69 1012.3
20260905091834 17 275 16.1 33.8 0.00 1.09 0.03 70 1012.3
20260905091340 17 224 19.3 33.8 0.00 1.09 0.03 71 1012.3
20260905090833 17 277 16.1 29.0 0.00 1.09 0.03 71 1012.4
20260905090341 17 267 16.1 29.0 0.00 1.09 0.03 71 1012.3
20260905085905 17 273 9.7 22.5 0.00 1.09 0.03 72 1012.2
20260905085350 17 269 11.3 22.5 0.00 1.09 0.03 71 1012.2
20260905084905 17 295 12.9 27.4 0.00 1.09 0.03 71 1012.1
20260905084351 17 228 14.5 27.4 0.00 1.09 0.03 70 1012.1
20260905083845 17 261 14.5 27.4 0.00 1.09 0.03 71 1012.1
20260905083355 17 281 14.5 37.0 0.00 1.09 0.03 70 1012.0
20260905082848 17 269 19.3 37.0 0.00 1.09 0.03 70 1012.1
20260905082415 18 281 17.7 30.6 0.00 1.09 0.03 71 1012.0
20260905081828 18 256 14.5 30.6 0.00 1.09 0.03 71 1011.9
20260905081417 17 273 14.5 29.0 0.00 1.09 0.03 72 1011.9
20260905080848 17 288 14.5 25.7 0.00 1.09 0.03 73 1011.9
20260905080352 17 289 9.7 25.7 0.00 1.09 0.03 73 1012.0
20260905075838 17 252 9.7 41.8 0.00 1.09 0.03 73 1012.0
20260905075344 17 258 17.7 41.8 0.00 1.09 0.03 73 1012.0
20260905074859 17 275 14.5 29.0 0.00 1.09 0.03 73 1011.9
20260905074405 17 257 14.5 32.2 0.00 1.09 0.03 73 1011.8
20260905073840 17 255 17.7 32.2 0.00 1.09 0.03 73 1011.8
20260905073346 17 253 8.0 29.0 0.00 1.09 0.03 74 1011.7
20260905072841 17 287 14.5 32.2 0.00 1.09 0.03 74 1011.7
20260905072346 17 315 8.0 30.6 0.00 1.09 0.03 75 1011.6
20260905071839 17 265 12.9 30.6 0.00 1.09 0.03 74 1011.5
20260905071344 16 240 11.3 27.4 0.00 1.09 0.03 75 1011.4
20260905070839 16 235 12.9 27.4 0.00 1.09 0.03 75 1011.4
20260905070342 16 265 12.9 30.6 0.00 1.09 0.03 75 1011.5
20260905065831 16 254 16.1 33.8 0.00 1.09 0.03 75 1011.5
20260905065339 16 225 14.5 27.4 0.00 1.09 0.03 75 1011.4
20260905064833 16 282 14.5 22.5 0.00 1.09 0.03 75 1011.3
20260905064338 16 265 14.5 25.7 0.00 1.09 0.03 75 1011.2
20260905063852 16 227 14.5 25.7 0.00 1.09 0.03 75 1011.2
20260905063341 16 240 11.3 24.1 0.00 1.09 0.03 75 1011.1
20260905062837 16 279 11.3 30.6 0.00 1.09 0.03 76 1011.0
20260905062347 16 257 14.5 30.6 0.00 1.09 0.03 76 1011.0
20260905061357 16 248 8.0 29.0 0.00 1.09 0.03 76 1010.9
20260905060830 16 269 11.3 29.0 0.00 1.09 0.03 76 1010.9
20260905060415 16 283 9.7 29.0 0.00 1.09 0.03 76 1010.8
20260905055842 16 288 9.7 29.0 0.00 1.09 0.03 76 1010.8
20260905055351 16 284 14.5 29.0 0.00 1.09 0.03 76 1010.7
20260905054904 16 238 12.9 24.1 0.00 1.09 0.03 76 1010.7
20260905054349 16 263 9.7 22.5 0.00 1.09 0.03 77 1010.6
20260905053844 16 259 9.7 22.5 0.00 1.09 0.03 77 1010.4
20260905053349 16 256 9.7 24.1 0.00 1.09 0.03 77 1010.6
20260905052842 16 272 9.7 24.1 0.00 1.09 0.03 77 1010.6
20260905052346 16 287 8.0 20.9 0.00 1.09 0.03 77 1010.3
20260905051840 16 294 6.4 19.3 0.00 1.09 0.03 77 1010.4
20260905051348 16 250 9.7 19.3 0.00 1.09 0.03 77 1010.2
20260905050844 16 293 4.8 17.7 0.00 1.09 0.03 77 1010.2
20260905050334 16 279 9.7 17.7 0.00 1.09 0.03 77 1010.2
20260905045843 16 269 8.0 22.5 0.00 1.09 0.03 77 1010.1
20260905045412 16 269 12.9 22.5 0.00 1.09 0.03 77 1010.1
20260905044846 16 286 9.7 19.3 0.00 1.09 0.03 77 1010.1
20260905044412 16 283 11.3 19.3 0.00 1.09 0.03 77 1010.0
20260905043828 16 265 9.7 19.3 0.00 1.09 0.03 77 1009.9
20260905043417 16 276 9.7 20.9 0.00 1.09 0.03 77 1009.8
20260905042829 16 251 9.7 20.9 0.00 1.09 0.03 77 1009.8
20260905042338 16 252 8.0 19.3 0.00 1.09 0.03 77 1009.7
20260905041833 16 276 11.3 19.3 0.00 1.09 0.03 77 1009.6
20260905041358 16 248 8.0 16.1 0.00 1.09 0.03 77 1009.7
20260905040832 16 250 4.8 16.1 0.00 1.09 0.03 77 1009.7
20260905040357 16 273 9.7 20.9 0.00 1.09 0.03 77 1009.5
20260905035841 16 288 9.7 22.5 0.00 1.09 0.03 77 1009.4
20260905035347 16 275 12.9 22.5 0.00 1.09 0.03 77 1009.5
20260905034840 16 263 9.7 19.3 0.00 1.09 0.03 77 1009.4
20260905034345 16 277 9.7 20.9 0.00 1.09 0.03 77 1009.1
20260905033838 16 277 9.7 20.9 0.00 1.09 0.03 77 1009.0
20260905033404 16 275 9.7 22.5 0.00 1.09 0.03 77 1009.0
20260905032855 16 261 12.9 22.5 0.00 1.09 0.03 77 1009.1
20260905032403 16 262 9.7 16.1 0.00 1.09 0.03 77 1009.0
20260905031841 16 259 9.7 22.5 0.00 1.09 0.03 77 1009.0
20260905031348 16 263 12.9 22.5 0.00 1.09 0.03 77 1008.9
20260905030842 16 284 9.7 27.4 0.00 1.09 0.03 77 1008.8
20260905030348 16 284 12.9 29.0 0.00 1.09 0.03 77 1008.6
20260905025833 16 251 14.5 29.0 0.00 1.09 0.03 77 1008.5
20260905025341 16 264 9.7 29.0 0.00 1.09 0.03 77 1008.3
20260905024834 16 277 14.5 29.0 0.00 1.09 0.03 77 1008.3
20260905024339 16 263 12.9 25.7 0.00 1.09 0.03 77 1008.3
20260905023835 16 250 8.0 22.5 0.00 1.09 0.03 78 1008.2
20260905023340 16 266 9.7 20.9 0.00 1.09 0.03 78 1008.2
20260905022833 16 267 11.3 24.1 0.00 1.09 0.03 78 1008.0
20260905022338 16 229 11.3 25.7 0.00 1.09 0.03 78 1008.1
20260905021834 16 272 9.7 25.7 0.00 1.09 0.03 78 1008.1
20260905021403 16 256 4.8 20.9 0.00 1.09 0.03 78 1008.0
20260905020841 16 246 9.7 24.1 0.00 1.09 0.03 78 1007.9
20260905020346 16 253 11.3 24.1 0.00 1.09 0.03 78 1007.9
20260905015833 16 260 11.3 24.1 0.00 1.09 0.03 78 1008.0
20260905015340 16 279 4.8 25.7 0.00 1.09 0.03 78 1008.0
20260905014833 16 267 11.3 25.7 0.00 1.09 0.03 78 1008.1
20260905014402 16 254 8.0 19.3 0.00 1.09 0.03 78 1008.0
20260905013837 16 273 6.4 19.3 0.00 1.09 0.03 78 1007.8
20260905013407 16 254 8.0 16.1 0.00 1.09 0.03 78 1007.8
20260905012841 16 217 8.0 20.9 0.00 1.09 0.03 78 1007.8
20260905012350 16 267 8.0 22.5 0.00 1.09 0.03 78 1007.6
20260905011843 16 227 11.3 19.3 0.00 1.09 0.03 78 1007.6
20260905011348 16 254 8.0 19.3 0.00 1.09 0.03 78 1007.7
20260905010841 16 267 8.0 20.9 0.00 1.09 0.03 78 1007.6
20260905010345 16 273 8.0 20.9 0.00 1.09 0.03 78 1007.3
20260905005910 16 269 6.4 22.5 0.00 1.09 0.03 78 1007.4
20260905005354 16 273 11.3 20.9 0.00 1.09 0.03 78 1007.5
20260905004831 16 277 9.7 27.4 0.00 1.09 0.03 78 1007.6
20260905004357 16 269 11.3 27.4 0.00 1.09 0.03 78 1007.7
20260905003831 16 252 9.7 27.4 0.00 1.09 0.03 78 1007.7
20260905003417 16 243 11.3 27.4 0.00 1.09 0.03 78 1007.8
20260905002909 16 244 14.5 27.4 0.00 1.09 0.03 78 1007.7
20260905002354 16 213 11.3 25.7 0.00 1.09 0.03 78 1007.4
20260905001847 16 227 12.9 25.7 0.00 1.09 0.03 78 1007.0
20260905001353 16 277 12.9 24.1 0.00 1.09 0.03 78 1006.9
20260905000846 16 257 9.7 20.9 0.00 1.09 0.03 78 1006.7
20260905000410 16 252 9.7 24.1 0.00 1.09 0.03 78 1006.9
20260904235834 16 277 9.7 24.1 0.00 1.09 0.03 77 1006.9
20260904235403 16 269 9.7 22.5 0.00 1.09 0.03 77 1006.8
20260904234834 17 269 9.7 25.7 0.00 1.09 0.03 77 1006.8
20260904234400 17 240 9.7 22.5 0.00 1.09 0.03 77 1006.5
20260904233832 17 241 11.3 22.5 0.00 1.09 0.03 77 1006.5
20260904233358 17 269 11.3 22.5 0.00 1.09 0.03 77 1006.5
20260904232833 17 259 11.3 22.5 0.10 1.09 0.03 77 1006.6
20260904232342 17 232 9.7 24.1 0.10 1.09 0.03 77 1006.6
20260904231836 17 252 12.9 24.1 0.10 1.09 0.03 78 1006.6
20260904231406 17 292 9.7 19.3 0.10 1.09 0.03 78 1006.6
20260904230840 17 244 8.0 22.5 0.10 1.09 0.03 78 1006.2
20260904230403 17 248 9.7 19.3 0.10 1.09 0.03 78 1006.2
20260904225832 17 287 9.7 22.5 0.10 1.09 0.03 79 1006.1
20260904225339 17 248 8.0 22.5 0.10 1.09 0.03 79 1006.2
20260904224834 17 271 8.0 22.5 0.10 1.09 0.03 79 1005.7
20260904224402 17 286 9.7 19.3 0.10 1.09 0.03 79 1005.8
20260904223834 18 240 8.0 19.3 0.10 1.09 0.03 80 1005.6
20260904223400 18 259 6.4 19.3 0.10 1.09 0.03 80 1005.8
20260904222832 18 211 9.7 19.3 0.00 0.99 0.00 80 1005.8
20260904222358 18 220 8.0 20.9 0.00 0.99 0.00 80 1005.7
20260904221833 18 268 8.0 20.9 0.00 0.99 0.00 80 1005.5
20260904221343 18 240 1.6 14.5 0.00 0.99 0.00 80 1005.4
20260904220859 18 257 4.8 11.3 0.00 0.99 0.00 80 1005.1
20260904220347 18 214 3.2 12.9 0.00 0.99 0.00 81 1004.6
20260904215831 18 238 3.2 12.9 0.00 0.99 0.00 80 1004.9
20260904215357 17 273 4.8 12.9 0.00 0.99 0.00 80 1005.3
20260904214850 17 280 3.2 11.3 0.00 0.99 0.20 80 1005.3
20260904214338 17 268 1.6 9.7 0.00 0.99 0.20 80 1005.4
20260904213835 17 243 1.6 9.7 0.00 0.99 0.20 80 1005.0
20260904213341 17 261 0.0 12.9 0.00 0.99 0.20 80 1005.2
20260904212842 17 248 3.2 12.9 0.00 0.99 0.20 80 1005.2
20260904212350 17 288 1.6 8.0 0.00 0.99 0.20 80 1005.0
20260904211843 17 288 3.2 9.7 0.00 0.99 0.20 80 1005.3
20260904211353 17 263 4.8 14.5 0.00 0.99 0.20 80 1005.4
20260904210848 17 248 3.2 14.5 0.00 0.99 0.20 80 1005.4
20260904210353 17 256 3.2 8.0 0.00 0.99 0.20 80 1005.6
20260904205842 17 227 3.2 6.4 0.00 0.99 0.20 80 1005.4
20260904205351 17 245 0.0 4.8 0.00 0.99 0.20 80 1005.0
20260904204846 17 245 1.6 4.8 0.00 0.99 0.20 79 1004.9
20260904204351 17 260 0.0 3.2 0.00 0.99 0.20 79 1005.0
20260904203844 18 260 0.0 8.0 0.20 0.99 0.20 79 1005.0
20260904203350 18 260 1.6 8.0 0.20 0.99 0.20 79 1005.2
20260904202843 18 277 3.2 11.3 0.30 0.99 0.20 79 1005.1
20260904202353 18 263 3.2 14.5 0.30 0.99 0.20 79 1005.0
20260904201906 18 282 3.2 16.1 0.41 0.99 0.20 79 1005.3
20260904201350 18 292 8.0 19.3 0.71 0.99 0.20 79 1005.7
20260904200845 18 270 8.0 19.3 0.71 0.99 0.20 79 1005.9
20260904200350 18 250 9.7 17.7 0.79 0.99 0.20 78 1005.9
20260904195835 18 268 8.0 17.7 0.89 0.99 0.20 78 1005.4